Back to catalog

STARLINK-4677

AliveCommunicationsVLEO
NORAD 53600·PAYLOAD·🇺🇸 United States

Launched Aug 28, 2022 from Cape Canaveral Space Force Station

Loading…

Next Passes (next 24 hours)

TLE

FreshSource: CelesTrak SupGP

Epoch: Sep 14, 2026, 13:50 UTC

1 53600C 22104N   26257.57687500  .00020358  00000+0  60186-3 0  2571
2 53600  53.1582 103.6117 0001544  87.5769 154.3628 15.34360635    11

Track STARLINK-4677 in real time with AllMySat

Download on the App Store